Regional Weather Roundup
Issued by NWS

Home | Current Version | Previous Version | Text Only | Print | Product List | Glossary On
Versions: 1 2 3 4 5 6 7 8 9 10 11 12 13 14 15 16 17 18 19 20 21 22 23 24 25 26 27 28 29 30 31 32 33 34 35 36 37 38 39 40 41 42 43 44 45 46 47 48 49 50
000
ASUS45 KPSR 250110
RWRAZ

ARIZONA HOURLY REGIONAL WEATHER ROUNDUP
NATIONAL WEATHER SERVICE PHOENIX AZ
600 PM MST FRI FEB 24 2017

NOTE: FAIR INDICATES FEW OR NO CLOUDS BELOW 12,000 FEET WITH NO
SIGNIFICANT WEATHER AND/OR OBSTRUCTIONS TO VISIBILITY.

AZZ001>003-036-250200-
NORTHWEST ARIZONA

CITY           SKY/WX    TMP DP  RH WIND       PRES   REMARKS
BULLHEAD CITY  CLEAR     59  12  15 NW6       30.11R
KINGMAN        CLEAR     48  -8   9 N9        30.09R
$$

AZZ004>008-015-016-018-250200-
NORTH CENTRAL ARIZONA

CITY           SKY/WX    TMP DP  RH WIND       PRES   REMARKS
GRAND CANYON   CLEAR     32   3  29 W5        30.04R WCI  27
WILLIAMS       CLEAR     36   7  30 W8G15     30.05S WCI  29
PRESCOTT       CLEAR     44   8  23 W9        30.06R
FLAGSTAFF      CLEAR     33   5  30 W13G21    30.03R WCI  24
PAYSON         CLEAR     43  18  36 W6        30.10R
PAGE           CLEAR     42 -10  11 W12G18    30.03R
$$

AZZ009>014-017-250200-
NORTHEAST ARIZONA

CITY           SKY/WX    TMP DP  RH WIND       PRES   REMARKS
WINSLOW        CLEAR     45   6  20 W16       30.03R
SAINT JOHNS    PTCLDY    43   0  16 NW14      30.00R
WINDOW ROCK    PTCLDY    35  -1  21 W21G28    29.99R WCI  24
SHOW LOW       CLEAR     37  10  32 SW13      30.05R WCI  29
$$

AZZ023-250200-
GREATER PHOENIX AREA

CITY           SKY/WX    TMP DP  RH WIND       PRES   REMARKS
PHOENIX        CLEAR     61  16  17 W9        30.08R
BUCKEYE        CLEAR     59  19  21 W3        30.09S
GLENDALE       CLEAR     61  21  21 S8        30.10R
LUKE AFB       CLEAR     60  20  21 SW12      30.07R
DEER VALLEY    CLEAR     58  18  21 S8        30.08R
SCOTTSDALE     CLEAR     59  17  19 W5        30.09R
MESA-FALCON    CLEAR    N/A N/A N/A SW6       30.06S
MESA-GATEWAY   CLEAR     59  16  18 SW6       30.10R
$$

AZZ027-028-250200-
SOUTHWEST MARICOPA COUNTY AND PINAL COUNTY

CITY           SKY/WX    TMP DP  RH WIND       PRES   REMARKS
CASA GRANDE    NOT AVBL
GILA BEND      CLEAR     64  14  14 SW3       30.08S
$$

AZZ503-504-507>509-250200-
SOUTHEAST ARIZONA

CITY           SKY/WX    TMP DP  RH WIND       PRES   REMARKS
TUCSON         CLEAR     59  15  18 N10       30.10R
DAVIS-MONTHAN  CLEAR     57  15  19 N10       30.09R
RYAN FIELD     CLEAR     59  16  18 NW9       30.10R
NOGALES        CLEAR     57  12  17 W12       30.08R
SIERRA VISTA   CLEAR     53  11  18 NW8       30.09R
DOUGLAS        CLEAR     56   5  13 N12       30.06R
SAFFORD        CLEAR     55  12  18 NW14      30.03R
$$

AZZ020-021-025-026-031-250200-
SOUTHWEST ARIZONA

CITY           SKY/WX    TMP DP  RH WIND       PRES   REMARKS
YUMA           CLEAR     64  23  21 CALM      30.09S
$$

CAZ031-033-041-043-047-048-061-250200-
SOUTHERN CALIFORNIA

CITY           SKY/WX    TMP DP  RH WIND       PRES   REMARKS
DOWNTOWN L.A.  CLEAR     58  33  39 VRB6      30.13R
L.A. AIRPORT   CLEAR     55  38  52 W15       30.14S
SAN DIEGO      PTCLDY    60  37  42 NW10      30.16R
BURBANK        CLEAR     57  25  29 S9        30.11R
ONTARIO        CLEAR     58  30  34 W7        30.10S
RIVERSIDE      CLEAR     59  31  34 W5        30.11R
PALM SPRINGS   CLEAR     62  30  29 VRB5      30.10S
EL CENTRO NAS  PTCLDY    65  27  23 NE6       30.11R
IMPERIAL       CLEAR     64  30  27 E5        30.09R
BLYTHE         CLEAR     62  17  17 CALM      30.10F
NEEDLES        CLEAR     62  14  15 CALM      30.10S
$$

NVZ020-UTZ003-250200-
SOUTHERN NEVADA-UTAH

CITY           SKY/WX    TMP DP  RH WIND       PRES   REMARKS
LAS VEGAS      PTCLDY    53   9  17 E10       30.08R
SALT LAKE CITY FAIR      31  14  49 W3        30.12R
$$

NMZ009-TXZ055-250200-
NEW MEXICO-WEST TEXAS

CITY           SKY/WX    TMP DP  RH WIND       PRES   REMARKS
ALBUQUERQUE    PTCLDY    44  -2  14 W14G24    29.96R
EL PASO        PTCLDY    59   5  11 W21       29.97R
$$


........................KEY........................
SKY/WX - SKY CONDITION/WEATHER
TMP    - TEMPERATURE IN FAHRENHEIT
DP     - DEW POINT IN FAHRENHEIT
RH     - RELATIVE HUMIDITY IN PERCENT
WIND   - DIRECTION AND SPEED IN MILES PER HOUR (MPH)
VRB    - VARIABLE WIND DIRECTION
PRES   - MEAN SEA LEVEL PRESSURE IN INCHES OF MERCURY
         F - FALLING PRESSURE   R - RISING PRESSURE
         S - STEADY PRESSURE
VSB    - VISIBILITY IN MILES
HX     - HEAT INDEX IN FAHRENHEIT
WCI    - WIND CHILL INDEX IN FAHRENHEIT
TC     - TEMPERATURE IN CELSIUS WHICH IS ALSO KNOWN AS
         TEMPERATURE IN CENTIGRADE
AFB    - AIR FORCE BASE
         LUKE AFB IS LUKE AIR FORCE BASE
         DAVIS-MONTHAN IS DAVIS-MONTHAN AIR FORCE BASE
NAS    - NAVAL AIR STATION
         EL CENTRO NAS IS EL CENTRO NAVAL AIR STATION
N/A    - NOT AVAILABLE




USA.gov is the U.S. government's official web portal to all federal, state and local government web resources and services.